Location: Shepherdstown, WV
(39.4326°N, 77.8042°W)
Time: 15:11:09
(UTC-04:00)

S-56A Canister/Altair - Pass Details

Date: 01 August 2021
Orbit: 632 x 2500 km, 38.9° (Epoch: 15 September)

Event Time Altitude Azimuth Distance (km) Brightness Sun altitude
Rises 21:09:03 0° 287° (WNW) 6,170 14.0 -8.7°
Reaches altitude 10° 21:13:12 10° 284° (WNW) 5,165 13.1 -9.3°
Maximum altitude 21:27:37 57° 212° (SSW) 2,548 10.1 -11.7°
Enters shadow 21:37:41 15° 140° (SE) 3,814 10.4 -13.2°
